Regional Weather Roundup
Issued by NWS

Home | Current Version | Previous Version | Text Only | Print | Product List | Glossary On
Versions: 1 2 3 4 5 6 7 8 9 10 11 12 13 14 15 16 17 18 19 20 21 22 23 24 25 26 27 28 29 30 31 32 33 34 35 36 37 38 39 40 41 42 43 44 45 46 47 48 49 50
000
ASUS43 KBIS 171610
RWRND

NORTH DAKOTA REGIONAL WEATHER ROUNDUP
NATIONAL WEATHER SERVICE BISMARCK ND
1100 AM CDT THU JUN 17 2021

NOTE: "FAIR" INDICATES FEW OR NO CLOUDS BELOW 12,000 FEET WITH NO
SIGNIFICANT WEATHER AND/OR OBSTRUCTIONS TO VISIBILITY.


NDZ001>003-009>011-017-171700-
NORTHWEST NORTH DAKOTA

CITY           SKY/WX    TMP DP  RH WIND       PRES   REMARKS
WILLISTON      SUNNY     73  41  31 W9        29.96F
MINOT          SUNNY     81  38  21 W14       29.89F
MINOT AFB      SUNNY     79  33  19 W14       29.87F
$$

NDZ018>021-031>035-040>046-171700-
SOUTHWEST NORTH DAKOTA

CITY           SKY/WX    TMP DP  RH WIND       PRES   REMARKS
BISMARCK       MOSUNNY   80  49  33 VRB7      29.94S
DICKINSON      PTSUNNY   76  43  30 SW9       29.97S
GARRISON         N/A     78  44  29 W16       29.92F
HETTINGER ARPT MOSUNNY   75  48  38 S8        30.01S
$$

NDZ004>008-012>016-024-026-027-054-171700-
NORTHEAST NORTH DAKOTA

CITY           SKY/WX    TMP DP  RH WIND       PRES   REMARKS
GRAND FORKS    MOSUNNY   80  42  25 NW5       29.84F
GRND FRKS AFB  MOSUNNY   84  45  25 W7        29.84F
DEVILS LAKE    SUNNY     80  46  30 W16       29.88F
$$

NDZ022-023-025-028>030-036>039-047>053-171700-
SOUTHEAST NORTH DAKOTA

CITY           SKY/WX    TMP DP  RH WIND       PRES   REMARKS
FARGO          MOSUNNY   79  48  33 N5        29.86F
JAMESTOWN      SUNNY     80  46  30 W5        29.90F
$$




USA.gov is the U.S. government's official web portal to all federal, state and local government web resources and services.